Overview Statistics Trail Chart Weather Telemetry Raw packets
 

This is the latest recevied weather packets stored in our database for station/object IU3OVK-13. If no packets are shown the sender has not sent any weather packets the latest 10 day(s).

<< 28 29 30 31 32 33 34 >>
Time Temp. Humidity Pressure Rain* Wind** Luminosity Snow
1788049754 20° C 99% 1007.3 hPa - - - -
1788049134 20° C 99% 1007.3 hPa - - - -
1788048514 20.56° C 99% 1007 hPa - - - -
1788047893 20° C 99% 1007.1 hPa - - - -
1788047274 20.56° C 99% 1006.8 hPa - - - -
1788046653 20° C 99% 1006.9 hPa - - - -
1788045413 20.56° C 99% 1006.9 hPa - - - -
1788044792 21.11° C 99% 1006.6 hPa - - - -
1788044172 21.11° C 99% 1006.5 hPa - - - -
1788043552 21.11° C 99% 1006.2 hPa - - - -
1788042932 21.67° C 99% 1006.1 hPa - - - -
1788042312 21.67° C 99% 1006.2 hPa - - - -
1788041691 21.67° C 99% 1006.1 hPa - - - -
1788041071 22.22° C 99% 1006 hPa - - - -
1788040451 22.22° C 99% 1005.8 hPa - - - -
1788039212 21.67° C 99% 1006 hPa - - - -
1788038590 22.22° C 99% 1006 hPa - - - -
1788037970 22.78° C 99% 1005.7 hPa - - - -
1788037350 22.22° C 99% 1005.8 hPa - - - -
1788036730 22.22° C 99% 1005.7 hPa - - - -
1788036110 22.22° C 99% 1005.6 hPa - - - -
1788035489 22.78° C 99% 1005.4 hPa - - - -
1788034869 22.78° C 99% 1005.4 hPa - - - -
1788034249 22.78° C 99% 1005.4 hPa - - - -
1788033629 23.33° C 99% 1005.2 hPa - - - -

* Rain since midnight (hover to see other rain measurements)
** Current wind speed in m/s (hover to see current wind gust speed)